Location: Newark
(13.0328°N, 9.6142°E)
Time: 09:32:59
(UTC+00:00)

Envisat - Pass Details

Date: 27 October 2019
Orbit: 764 x 766 km, 98.1° (Epoch: 22 November)

Event Time Altitude Azimuth Distance (km) Brightness Sun altitude
Rises 17:59:53 0° 176° (S) 3,222 6.3 -15.9°
Reaches altitude 10° 18:02:13 10° 180° (S) 2,296 5.6 -16.4°
Maximum altitude 18:07:10 57° 259° (WSW) 897 3.7 -17.6°
Drops below altitude 10° 18:12:08 10° 337° (NNW) 2,297 5.6 -18.8°
Sets 18:14:29 0° 342° (NNW) 3,223 6.4 -19.4°
